Location: Newark
(48.5667°N, 12.8167°E)
Time: 13:44:28
(UTC+00:00)

CAS-4B - Pass Details

Date: 23 November 2019
Orbit: 528 x 546 km, 43.0° (Epoch: 06 December)

Event Time Altitude Azimuth Distance (km) Brightness Sun altitude
Exits shadow 04:52:17 - 221° (SW) 1,995 ? -15.5°
Reaches altitude 10° 04:52:53 10° 217° (SW) 1,792 ? -15.4°
Maximum altitude 04:56:17 25° 161° (SSE) 1,093 ? -14.9°
Drops below altitude 10° 04:59:41 10° 105° (ESE) 1,788 ? -14.3°
Sets 05:02:11 0° 92° (E) 2,676 ? -13.9°
